Tracking 19212 objects as of 17-Jul-2018
HD Live streaming from Space Station
objects crossing your sky now

FENGYUN 1C DEB

Track FENGYUN 1C DEB now!
10-day predictions


NORAD ID: 30752
Int'l Code: 1999-025ATN
Perigee: 764.8 km
Apogee: 806.6 km
Inclination: 98.9 °
Period: 100.4 minutes
Semi major axis: 7156 km
RCS: 0.023 m2 (small)
Launch date: May 10, 1999
Source: People's Republic of China (PRC)
Launch site: Taiyaun Space Center, China (TSC)

Note: This is SATELLITE DEBRIS
aabbcc
Your satellite tracking list
Your tracking list is empty




NASA's NSSDC Master Catalog

Two Line Element Set (TLE):
1 30752U 99025ATN 18197.72058177  .00000840  00000-0  31640-3 0  9994
2 30752  98.8804 274.9974 0029246  47.5117  79.9028 14.33946285591270
Source of the keplerian elements: AFSPC